Theta_e
293 294 295 296 298 299 299 300 300 301 301 301 301 301 301 302 302 302 303 303 304 304 304 305 306 307 309 311 312 313 314 314 314 315 317 318 320 322 324 325 325 326 326 326 327 326 324 324 324 325 325 324 324 325 325 326 326 326 326 325 324 325 324 323 318 306 306 310 309 306 305 305 303 304 302 303 302 303 303 304 303 303 302 302 302
293 294 295 296 298 299 299 300 300 300 300 300 300 300 301 301 302 302 302 302 304 304 303 304 305 306 308 311 313 314 314 314 314 315 315 316 318 321 322 324 325 325 326 325 326 326 325 323 324 324 324 324 323 323 324 324 324 325 326 325 324 324 326 323 317 309 305 307 307 307 305 306 302 304 303 302 302 302 301 301 301 301 300 301 300
294 295 295 297 298 299 300 300 300 300 300 300 299 299 300 300 301 301 301 301 302 303 303 303 303 304 306 307 310 313 314 314 314 315 315 315 316 318 321 323 324 324 324 324 325 325 324 323 323 323 324 323 323 323 323 323 324 324 324 324 324 323 323 323 314 309 305 304 306 304 304 304 304 302 303 303 302 301 300 299 298 298 299 300 300
294 295 295 297 299 299 299 300 299 299 299 299 299 299 300 300 301 300 300 301 300 301 302 302 303 303 304 307 308 310 314 314 314 314 315 316 316 318 320 322 324 324 324 324 324 324 324 323 323 323 322 321 321 321 322 323 323 324 324 324 324 323 321 319 316 310 305 303 303 303 303 301 299 301 300 300 299 296 295 295 296 295 295 295 295
294 295 295 296 299 300 299 299 299 299 299 299 299 299 299 299 300 299 300 300 300 300 301 302 302 302 302 304 307 310 313 314 313 313 314 316 317 318 320 321 323 324 324 325 323 324 323 323 323 323 322 321 321 320 320 320 321 323 323 323 323 323 318 316 314 310 305 304 302 301 300 297 297 297 297 294 293 293 294 294 294 294 295 295 295
294 295 295 297 299 299 299 299 299 298 299 299 299 299 299 299 299 299 299 298 299 299 299 300 301 301 302 303 305 308 312 313 313 313 313 314 316 319 320 321 323 323 324 324 325 324 323 323 323 323 321 320 320 320 319 319 320 321 322 323 322 322 317 313 311 309 307 302 298 296 297 295 295 296 296 294 292 291 291 291 293 294 294 293 294
294 295 296 297 298 298 298 298 299 299 299 299 299 299 298 298 298 297 298 298 297 298 298 299 300 300 301 303 304 307 310 313 314 313 313 314 315 317 319 321 322 323 323 323 324 323 323 323 322 321 320 320 320 318 316 317 318 319 321 322 321 318 312 310 308 307 303 298 297 297 296 296 296 293 294 294 293 292 291 291 290 291 293 293 292
294 295 296 297 297 297 298 299 299 299 299 299 298 298 298 297 297 297 297 297 297 297 297 298 298 300 301 302 304 306 309 312 313 314 314 314 315 316 318 319 321 322 322 322 323 322 322 322 322 321 319 318 319 317 316 316 317 318 320 320 318 314 309 307 305 302 299 297 295 293 294 294 295 295 293 292 291 290 291 292 290 290 290 291 292
293 294 295 295 296 297 298 299 299 299 299 298 298 297 297 297 297 296 296 296 297 297 297 298 298 299 300 302 303 305 308 311 314 314 313 313 315 316 318 319 320 320 321 321 321 320 319 320 319 318 316 314 311 310 311 311 316 316 316 316 313 311 307 304 302 298 297 295 293 294 293 292 292 292 291 291 291 290 292 292 291 290 290 290 289
293 294 294 296 297 298 298 298 299 299 298 297 297 297 296 296 296 296 296 296 296 296 296 297 298 299 300 302 304 306 307 310 310 307 308 313 315 317 319 319 320 320 319 319 318 317 316 315 315 311 309 308 306 304 304 305 309 314 313 312 309 307 304 302 300 298 297 295 293 292 291 292 291 292 292 293 293 291 290 291 289 289 290 289 289
292 293 294 296 297 298 298 298 298 297 297 296 296 296 295 295 295 295 295 295 296 296 296 296 297 299 301 302 303 305 308 310 306 303 302 304 312 316 318 319 320 319 317 317 314 312 312 311 310 309 308 306 306 301 301 302 303 303 304 305 306 307 304 301 300 298 297 296 293 293 292 291 291 293 292 290 290 290 289 289 289 288 288 287 286
292 293 294 296 297 298 298 298 297 297 296 295 295 295 295 294 294 294 294 295 295 296 296 297 298 299 301 303 304 305 307 306 303 301 301 301 304 314 318 319 317 316 314 313 311 309 307 305 303 303 304 306 306 304 302 300 300 299 299 300 300 301 302 305 301 298 297 294 293 294 293 291 290 290 289 288 288 289 289 289 289 288 288 287 287
291 292 294 296 297 298 298 297 296 295 295 295 294 294 293 293 293 293 293 294 295 295 296 297 298 300 302 303 304 306 307 305 301 301 301 300 300 307 317 316 314 313 311 309 307 305 304 301 299 299 300 302 304 304 305 302 298 298 297 298 298 298 296 296 297 301 298 296 294 293 293 292 289 290 290 288 289 288 288 287 288 288 288 288 287
291 292 294 296 297 297 297 296 295 294 294 294 294 293 293 292 292 293 294 294 294 295 296 297 299 301 303 305 306 307 308 305 300 300 300 300 299 303 315 313 312 311 310 308 306 305 304 301 299 298 299 300 301 302 302 301 300 299 299 299 298 295 293 293 294 295 297 300 298 295 293 292 291 290 291 290 289 288 287 287 288 287 287 287 287
290 292 294 296 297 296 296 295 294 294 294 294 293 292 292 292 292 292 293 293 294 295 296 297 299 302 305 307 307 308 309 304 300 300 300 299 299 300 314 311 310 309 310 308 306 305 305 303 301 300 298 299 300 300 300 299 298 297 295 294 294 294 295 296 296 297 296 296 296 294 291 291 290 290 290 291 291 289 289 289 289 288 287 287 287
290 292 294 295 295 295 295 295 294 294 294 293 292 291 291 291 291 292 292 293 295 296 296 298 300 304 306 308 308 308 310 301 300 299 299 299 299 306 312 310 308 306 305 306 306 305 304 303 302 301 299 298 297 295 297 297 295 293 291 290 290 290 290 291 291 292 293 292 291 290 290 290 290 290 291 290 289 289 289 288 288 287 286 286 284
290 291 293 293 295 295 295 295 294 293 293 292 291 290 290 290 290 291 291 292 293 294 295 298 302 305 307 307 307 308 307 300 298 299 299 298 300 309 309 308 306 303 302 302 303 303 303 303 302 301 299 299 295 293 294 296 296 293 291 289 289 288 288 290 290 289 289 289 289 289 289 289 289 289 289 289 288 288 287 286 285 286 285 284 284
289 291 292 294 295 295 295 294 293 293 292 291 290 289 289 290 290 291 291 292 293 294 295 297 301 305 305 306 306 304 301 299 296 297 297 297 302 308 307 306 302 300 298 297 297 299 300 300 301 299 298 297 292 292 293 295 294 292 290 289 287 287 287 289 290 289 290 289 289 289 289 289 289 289 289 288 289 289 288 285 286 286 285 285 283
289 290 292 294 295 295 294 293 293 292 291 290 289 288 288 288 290 291 292 292 293 294 296 297 300 303 304 304 303 302 300 298 295 295 296 296 301 305 304 302 299 296 295 295 295 296 297 297 298 297 297 295 291 292 292 296 294 292 291 289 287 286 287 288 288 288 288 288 288 289 289 290 291 291 291 289 289 290 289 288 287 287 285 285 285
289 290 292 294 295 295 293 292 292 291 290 289 288 287 288 288 288 290 291 292 292 294 296 299 297 296 298 300 300 300 299 298 297 294 295 296 299 303 303 300 297 295 295 295 293 293 294 295 295 292 292 291 291 291 292 293 294 293 292 289 286 285 288 288 288 288 287 287 287 288 288 289 290 290 290 290 291 290 288 288 288 288 287 285 285
289 290 292 294 295 294 293 292 291 291 290 289 288 288 288 287 289 290 290 292 294 296 295 294 293 293 293 294 295 295 297 296 295 293 294 295 296 298 301 301 298 296 295 294 293 292 292 293 293 291 290 290 290 290 291 291 292 293 293 290 288 288 289 288 288 288 287 288 288 288 288 288 289 289 289 289 289 289 288 288 287 287 287 286 284
288 290 292 294 294 294 293 292 292 291 290 289 286 286 288 288 289 289 289 291 292 292 292 291 290 290 290 291 291 292 295 295 294 293 293 294 294 296 300 299 297 296 295 294 293 293 293 293 292 291 289 289 289 289 290 290 291 292 290 288 287 288 289 289 288 288 288 288 287 287 287 286 286 287 287 287 287 288 286 285 285 285 286 287 285
288 289 291 292 294 293 292 292 291 291 290 288 286 286 287 288 289 289 288 288 290 290 290 289 289 288 288 288 289 290 291 293 293 293 292 293 293 293 294 295 293 296 295 292 293 292 292 292 291 290 289 289 289 289 289 289 289 288 287 287 287 287 288 288 287 287 287 287 287 285 285 285 285 284 284 284 285 286 285 286 286 287 287 286 286
288 289 290 291 292 292 292 292 291 291 290 288 287 286 286 287 288 288 287 287 287 288 288 289 288 287 287 287 288 289 290 290 291 291 291 291 291 291 291 292 293 295 295 293 291 290 290 291 290 288 288 288 288 288 288 288 288 287 287 287 287 288 288 287 287 287 286 285 285 284 284 284 284 284 284 284 284 284 284 285 285 285 286 286 286
287 286 287 289 291 291 292 291 291 290 289 288 286 286 286 286 286 287 287 287 287 287 287 288 287 287 286 286 287 288 289 290 290 290 290 290 290 290 290 290 290 291 292 292 291 290 289 288 288 288 288 288 287 287 287 287 287 287 287 287 289 288 288 287 287 287 285 283 283 283 283 284 284 284 284 284 284 285 284 284 284 284 284 285 285
286 286 287 289 290 291 290 290 290 290 289 287 287 286 286 286 286 285 286 287 287 286 286 287 287 286 286 286 287 287 288 289 289 290 291 290 289 289 289 290 290 290 290 289 288 288 288 288 288 288 288 288 289 288 287 288 287 288 288 289 289 288 288 287 286 285 283 283 283 283 283 283 283 284 284 284 284 283 284 283 283 283 284 283 283
287 286 286 287 289 290 289 289 289 289 288 287 287 287 286 286 285 285 285 285 286 286 286 286 286 286 286 286 286 287 287 288 289 289 290 290 290 290 290 289 289 289 289 289 288 289 289 289 288 288 288 288 288 288 288 288 288 288 288 288 288 288 287 287 286 285 284 283 283 283 283 283 284 283 283 284 283 284 285 284 283 282 283 283 282
285 284 285 286 287 288 288 286 287 288 288 286 286 285 285 286 285 284 284 283 284 285 285 285 285 285 285 286 286 286 286 287 288 289 289 290 290 290 290 290 289 289 288 288 289 289 289 288 288 289 289 288 288 288 287 287 287 286 286 286 286 286 287 287 286 285 284 284 283 283 283 283 283 283 283 283 283 283 284 283 282 282 283 283 281
285 285 284 285 286 287 288 288 288 288 288 287 287 285 284 285 285 285 285 285 285 284 284 284 285 285 285 286 286 285 285 284 286 287 289 289 289 289 289 289 289 288 288 288 287 288 288 288 287 287 287 286 285 286 285 285 285 285 285 285 286 285 285 285 284 283 283 283 283 282 282 283 282 282 282 282 282 282 282 282 282 281 281 282 280
285 284 283 284 285 286 286 287 287 286 287 287 286 287 286 286 286 285 285 286 286 286 286 285 285 285 285 285 286 285 284 285 287 287 288 288 288 288 288 288 288 288 288 288 288 287 286 286 286 286 285 285 285 284 284 285 284 284 284 285 285 285 284 284 284 283 284 283 283 283 282 281 281 282 282 281 281 282 283 281 280 281 280 279 279
283 283 283 283 284 285 286 285 286 285 286 287 286 286 286 287 287 286 286 286 286 286 286 286 286 286 286 284 286 287 286 287 287 287 288 288 287 287 287 287 287 287 287 287 287 286 285 285 285 285 285 285 284 284 284 284 284 283 283 284 284 284 284 284 284 284 283 282 282 282 281 281 280 281 280 280 280 280 280 280 281 281 280 279 279
284 283 282 282 284 284 285 285 285 285 285 286 286 286 286 286 287 287 287 286 286 286 286 286 286 286 286 286 286 285 286 286 287 287 287 287 287 287 287 287 287 287 287 288 286 285 285 285 285 285 285 284 284 284 285 284 284 284 283 283 283 283 283 283 284 284 282 282 281 281 281 281 280 281 281 280 279 280 280 278 279 279 279 279 279
283 282 282 283 283 283 283 283 283 284 284 284 285 285 285 285 285 285 287 287 287 286 286 286 286 286 286 286 286 286 286 286 286 287 287 287 287 287 287 287 287 287 287 287 285 285 285 285 285 285 285 284 285 285 284 285 284 285 284 283 283 283 284 284 284 283 282 282 282 281 280 280 281 280 279 279 279 278 279 278 278 278 279 278 276
283 282 282 282 282 283 282 283 283 283 283 284 284 285 285 285 285 285 285 285 286 286 287 286 286 286 286 286 286 286 286 286 286 286 286 286 287 287 287 287 287 287 287 286 286 285 285 285 285 285 285 285 285 284 284 284 284 284 283 284 284 283 283 283 283 282 282 281 281 280 280 281 281 280 279 279 279 279 279 278 278 278 278 278 278
281 282 283 283 282 282 282 282 283 283 283 283 283 284 284 284 284 284 284 284 284 283 283 285 286 286 285 285 285 286 286 286 286 286 286 286 286 287 287 287 286 286 286 286 286 286 285 285 285 285 285 285 284 284 284 284 284 283 283 283 283 283 282 282 282 281 281 281 281 280 280 280 280 280 279 279 279 279 279 278 278 279 277 276 276
281 282 282 282 282 282 282 282 283 283 283 283 283 283 284 284 284 284 284 284 284 284 284 284 285 285 285 285 285 285 285 286 286 286 286 286 286 286 285 284 284 285 285 285 285 285 286 285 285 285 285 285 284 284 284 284 283 284 283 282 282 282 282 281 281 281 281 280 280 279 280 280 280 280 280 280 280 279 279 279 278 277 277 276 276
281 281 282 281 282 282 282 283 283 283 283 282 283 283 283 284 283 284 283 283 283 283 284 285 285 285 285 285 285 285 285 285 286 286 286 286 286 285 285 285 284 284 284 285 285 285 284 284 284 284 284 284 284 284 285 283 283 283 283 283 283 282 282 281 281 280 280 280 280 280 279 279 279 280 280 279 278 278 278 278 277 277 277 276 276
281 281 281 282 282 283 283 283 282 282 282 283 283 283 283 283 283 283 283 283 283 283 283 283 284 283 283 283 286 285 285 285 286 285 286 285 285 285 285 285 284 284 284 285 285 285 284 284 285 285 284 284 284 284 284 283 283 283 282 283 283 282 283 281 281 281 280 280 280 280 279 279 280 280 280 279 278 278 278 278 278 278 277 276 276
282 282 282 282 282 282 283 282 282 282 282 282 283 283 282 282 282 282 282 282 282 282 282 283 283 282 283 283 284 285 285 284 283 283 283 284 284 285 285 284 284 284 285 285 285 285 285 285 285 285 285 285 284 284 284 284 283 283 283 282 282 282 282 281 281 281 281 280 280 280 280 279 280 280 280 279 278 278 278 277 276 276 276 276 276
283 283 282 282 282 282 282 281 282 282 281 282 282 282 282 282 282 281 281 282 281 282 282 282 282 282 283 283 283 283 283 282 282 283 283 283 283 284 284 284 284 284 285 285 285 285 285 285 285 285 284 284 284 284 284 284 284 283 283 282 282 282 282 282 281 281 280 280 279 279 279 279 279 279 279 280 279 278 277 276 277 277 277 277 276
283 283 283 282 282 282 283 283 282 282 281 281 282 282 282 281 281 281 281 281 281 281 281 281 282 282 283 283 285 284 283 282 282 283 282 282 283 283 283 284 284 284 284 285 285 285 285 285 285 285 285 285 285 285 285 284 284 283 283 283 282 282 282 281 281 280 280 279 279 279 279 279 278 279 279 278 279 278 277 277 277 277 277 277 276
283 284 284 284 282 282 282 281 281 282 282 281 281 281 281 281 281 281 281 281 281 281 281 281 282 283 284 285 284 284 283 282 283 282 282 283 283 282 283 283 284 284 285 285 285 286 285 286 286 285 285 285 285 285 284 284 284 283 283 283 282 282 281 281 281 280 279 279 279 279 279 279 279 280 279 279 278 278 277 277 277 276 277 276 276
284 283 284 284 284 283 282 282 282 282 280 280 280 281 281 281 281 281 281 281 281 281 281 281 281 282 283 283 283 283 282 282 282 282 282 282 282 282 283 283 283 284 284 284 285 286 286 286 285 286 285 285 285 285 285 284 284 284 283 283 282 282 281 281 280 280 280 279 279 279 279 279 279 279 279 279 278 277 277 277 276 276 276 276 276
285 284 283 283 283 283 282 282 281 281 280 281 281 280 281 281 281 281 281 281 280 280 280 280 281 281 281 282 282 282 282 282 282 282 282 282 282 282 283 283 283 283 284 284 283 284 285 285 285 285 286 286 286 286 285 285 285 284 283 283 282 282 281 281 281 280 280 280 280 279 279 279 279 279 279 278 277 276 276 276 276 275 275 275 275
286 284 284 284 284 283 282 282 281 281 281 281 280 280 280 281 280 280 280 280 280 280 280 280 280 281 281 281 282 281 282 282 281 281 282 282 282 282 282 283 283 283 284 283 283 283 284 284 284 284 284 284 285 285 285 285 285 285 284 284 283 282 282 281 281 281 281 280 280 280 280 279 279 279 279 278 277 277 276 276 276 276 275 274 275
285 285 285 284 284 284 283 282 282 282 281 280 280 280 280 281 281 281 280 280 280 279 279 279 279 280 280 281 281 281 281 281 281 281 281 281 282 282 282 282 282 283 283 283 283 283 283 283 284 284 284 284 284 285 285 284 284 284 284 284 284 284 283 283 282 281 281 281 281 281 280 280 279 279 279 278 278 278 277 275 276 276 276 275 274
287 286 286 285 285 285 284 283 282 282 282 281 281 281 281 281 281 280 280 281 280 280 280 280 280 279 280 280 280 281 281 281 280 281 281 281 281 281 281 281 282 282 282 283 283 283 283 283 283 283 283 283 284 284 284 284 284 284 284 284 284 284 284 283 282 282 282 282 282 281 281 280 279 279 278 278 277 277 276 275 276 274 275 276 275
287 286 286 286 286 286 285 283 283 283 282 281 281 281 281 281 281 281 281 281 281 281 281 281 281 281 280 280 280 280 281 281 281 281 281 281 281 280 280 280 281 281 281 281 282 282 283 283 282 282 283 283 283 284 284 284 284 283 283 283 284 284 282 280 282 282 282 282 282 281 281 280 280 279 278 277 277 277 276 275 275 275 275 275 275
287 287 287 287 286 286 285 284 283 283 282 282 282 282 281 281 281 281 282 282 282 282 282 282 281 282 281 281 281 281 281 281 281 281 281 281 280 281 280 281 281 280 281 281 281 282 282 282 283 283 283 283 283 284 283 284 284 284 284 283 282 279 279 279 280 282 280 282 282 281 281 281 279 278 278 277 277 277 277 275 275 275 275 275 275
286 286 287 287 287 286 285 284 284 284 283 282 282 282 282 281 281 281 281 282 282 282 282 282 282 282 282 282 281 282 282 281 281 281 281 280 281 280 280 280 280 280 281 281 281 281 281 281 281 281 282 282 282 283 283 283 283 284 284 284 278 278 278 279 279 278 280 282 282 282 281 280 279 279 278 278 276 275 275 274 275 275 274 274 273
286 286 286 286 287 286 286 285 285 284 284 283 282 282 282 281 281 281 281 282 282 282 282 282 282 282 282 282 282 282 282 282 282 282 282 281 281 281 281 281 281 281 280 280 281 281 281 281 281 282 282 282 282 282 283 283 283 284 281 279 278 278 278 278 280 277 278 279 282 281 281 279 278 277 277 276 276 275 275 274 274 274 274 274 273
Wind_Speed
3 5 4 5 6 7 7 7 8 8 10 10 11 11 11 12 10 10 11 11 11 11 11 11 12 12 12 12 12 12 11 11 10 10 10 10 9 10 10 12 14 13 13 16 15 13 13 13 11 13 12 12 11 11 11 11 10 10 10 11 11 10 10 9 9 6 3 3 7 9 10 10 7 6 8 6 6 5 6 5 5 4 5 4 5
4 5 4 5 6 7 8 8 8 9 10 11 11 11 10 11 11 11 11 11 10 12 13 12 12 13 13 13 13 13 13 11 11 10 11 11 11 9 11 12 14 14 13 14 14 13 13 16 16 15 13 14 12 13 12 11 11 11 10 10 11 10 9 9 8 10 8 5 6 7 9 8 8 6 8 8 7 6 7 5 3 3 4 4 4
5 5 5 6 7 7 8 8 9 10 11 10 11 13 12 12 12 12 11 11 11 11 12 13 14 14 14 14 14 14 13 13 11 11 12 12 12 12 12 12 13 14 16 16 15 14 14 15 15 15 12 14 13 13 12 12 11 12 10 8 11 8 8 10 10 9 12 6 7 9 9 8 7 9 7 6 6 7 8 5 5 4 3 4 5
5 5 5 6 7 8 8 8 10 10 11 10 12 13 12 11 12 13 13 12 12 12 13 14 14 15 14 14 15 16 14 12 12 12 13 13 13 13 13 13 13 14 16 16 15 14 15 15 16 16 14 15 14 13 11 11 11 11 10 11 12 11 7 8 12 12 10 11 8 10 8 9 5 6 5 6 7 6 5 6 6 6 6 5 6
5 5 6 7 8 8 9 9 10 11 11 10 11 12 13 12 12 13 12 12 13 13 13 13 14 15 15 16 16 16 15 14 13 12 12 13 13 13 13 13 14 15 15 16 17 16 16 15 16 15 15 16 14 13 11 12 11 10 11 10 10 8 5 8 9 11 13 13 10 6 7 5 6 6 7 8 7 7 6 6 6 7 6 5 6
4 5 6 7 8 9 10 9 10 11 11 11 12 12 12 13 13 12 13 15 15 14 15 13 13 15 16 17 17 17 16 16 15 14 13 13 13 13 13 13 14 15 15 15 17 17 17 18 16 15 14 15 15 13 12 13 10 10 11 11 11 13 12 9 9 10 13 13 14 11 6 10 7 6 7 8 9 8 6 6 5 4 6 6 5
4 5 6 7 8 9 10 10 10 11 11 11 10 12 13 13 13 14 14 15 15 15 15 15 15 15 17 17 18 17 17 16 15 15 14 14 14 15 14 14 14 14 15 16 16 15 15 15 15 15 15 15 15 13 12 12 11 12 12 13 12 11 11 11 11 11 12 13 9 10 11 6 9 9 6 5 6 6 10 8 5 2 3 5 6
4 5 6 8 8 10 9 9 10 11 10 11 11 13 14 14 14 14 14 14 15 16 17 17 16 15 17 17 18 16 17 16 16 15 14 14 14 15 15 14 14 14 14 15 15 15 15 15 15 15 15 13 14 12 13 12 10 11 11 12 13 13 12 11 11 12 13 13 13 11 8 9 6 5 7 9 8 2 4 6 10 7 4 3 2
4 5 7 8 9 9 9 9 10 10 10 12 13 14 14 14 13 13 14 16 14 15 15 17 18 18 17 18 18 17 16 16 14 14 13 14 14 15 16 15 15 15 15 15 15 14 13 13 13 13 13 16 18 15 15 14 12 11 10 11 12 13 12 11 12 12 9 9 9 8 10 7 7 10 9 10 13 13 6 6 6 5 6 6 4
5 6 7 8 8 9 10 10 10 10 11 13 14 13 13 13 13 14 14 15 16 16 16 17 18 18 16 16 17 16 16 14 16 20 17 13 14 14 14 15 15 15 15 15 13 13 13 11 11 16 16 17 17 18 18 18 19 16 13 12 14 13 13 12 11 12 14 13 14 13 11 12 10 13 13 9 7 9 10 9 10 6 6 6 3
5 6 8 8 8 9 10 10 10 11 12 13 13 14 14 13 14 15 15 15 15 16 17 18 17 16 16 16 17 16 15 14 19 19 20 20 15 14 14 14 14 14 14 15 14 13 11 11 10 12 14 14 14 17 18 19 19 19 22 23 20 18 15 15 15 13 13 12 10 12 14 13 9 7 9 9 8 10 9 8 8 8 9 9 5
6 7 7 8 9 10 10 11 11 11 13 14 14 14 15 15 16 16 15 15 14 14 16 17 17 17 15 16 16 15 15 18 20 20 20 20 19 14 13 13 13 12 13 14 13 13 12 9 7 6 6 8 9 10 12 16 16 15 17 20 22 24 26 24 19 12 13 13 11 10 9 12 11 10 9 11 11 8 7 8 9 9 9 5 4
6 6 7 8 10 10 10 10 11 13 13 13 13 13 15 15 15 15 16 15 14 15 16 16 16 16 16 16 16 16 15 20 21 22 20 20 21 18 12 13 12 12 12 13 13 13 12 11 8 7 6 10 9 9 10 10 14 19 16 13 13 14 9 4 10 19 18 16 18 16 16 13 11 11 10 10 9 12 9 8 7 6 6 7 4
4 6 7 8 10 10 10 12 13 13 13 13 13 13 14 16 15 14 14 14 14 14 14 16 15 16 16 16 16 15 16 18 22 22 22 21 21 19 13 10 10 12 14 15 14 15 14 12 10 9 8 9 9 11 11 13 14 13 11 9 8 10 11 14 14 13 11 12 16 17 11 12 14 12 8 10 13 12 10 9 8 8 7 6 6
5 6 7 9 9 9 11 12 13 13 13 13 13 13 14 15 15 13 12 13 13 13 13 14 14 15 15 15 14 15 15 20 21 23 23 23 22 19 13 10 10 11 14 16 16 16 16 15 14 12 11 11 10 13 14 14 14 13 12 11 9 8 7 7 7 8 8 7 6 7 9 8 9 10 9 6 8 7 8 11 10 9 9 7 5
5 6 7 8 9 9 11 12 13 13 13 13 13 14 14 14 15 13 13 13 12 12 12 13 15 14 14 14 15 15 15 21 22 23 24 23 22 15 13 12 11 10 9 12 15 14 13 14 13 12 12 12 16 20 17 15 15 13 13 11 10 8 8 8 11 11 10 10 10 11 9 10 12 11 9 9 9 9 10 9 9 8 8 6 4
5 5 7 8 8 9 11 12 14 14 13 13 13 14 14 15 14 12 13 13 13 12 12 13 12 13 14 15 15 14 11 17 22 22 22 23 18 13 12 11 10 11 10 9 10 11 12 13 13 11 12 13 18 20 21 21 16 17 15 11 8 10 9 8 17 20 20 21 22 21 20 19 17 17 15 15 12 12 10 9 7 7 8 7 3
5 6 7 8 8 9 10 12 14 14 13 13 14 14 14 13 14 12 13 14 14 14 12 12 13 13 12 12 12 10 8 13 20 19 21 23 19 13 11 11 12 11 9 4 6 9 8 15 11 12 13 14 19 21 21 19 17 17 17 14 13 12 9 7 9 12 23 23 22 22 19 18 18 17 16 15 14 9 10 10 8 7 7 6 6
5 5 7 8 7 8 9 12 13 13 13 12 13 13 12 14 14 13 13 13 14 14 12 11 13 12 11 10 12 12 9 11 17 17 19 22 18 11 12 11 12 11 11 9 5 9 9 12 16 15 13 15 22 23 24 21 20 19 18 18 14 13 9 10 15 14 15 16 13 15 13 13 10 9 10 14 11 7 5 9 7 7 8 6 7
5 5 6 7 6 7 8 12 12 13 13 13 12 13 13 12 12 14 13 12 12 12 13 10 4 2 2 2 3 4 8 7 11 16 16 20 21 13 12 13 13 13 12 13 11 8 9 10 12 16 19 23 23 22 18 19 18 17 18 18 17 12 11 13 14 16 14 14 12 11 10 9 9 9 8 8 7 7 7 6 6 6 7 6 5
5 5 6 6 5 6 8 11 13 13 12 12 11 13 13 12 12 13 12 11 10 3 6 7 7 7 8 7 6 4 4 7 8 15 17 16 17 19 13 14 14 14 13 13 13 13 11 10 9 17 20 17 16 16 19 18 19 17 18 19 19 20 18 16 16 21 15 13 11 10 9 8 8 8 8 7 6 5 5 5 5 6 8 7 6
5 5 5 5 5 5 8 10 11 11 13 13 12 12 12 12 11 12 11 12 12 7 6 8 9 9 8 8 7 6 7 9 9 12 14 14 12 15 13 12 13 14 13 12 11 11 13 12 11 16 19 16 12 17 13 15 13 11 11 22 28 27 18 17 14 12 11 11 10 10 9 8 8 7 7 6 5 6 6 6 7 7 5 5 7
4 4 4 5 5 4 6 10 11 11 13 13 13 12 12 12 12 11 12 12 12 11 9 8 9 8 8 7 7 7 7 8 11 11 12 13 15 10 10 12 17 15 16 15 13 11 9 11 12 17 19 22 14 15 16 15 12 16 27 26 24 26 22 13 14 13 11 10 10 10 8 8 8 7 7 6 5 7 8 7 7 7 7 6 6
3 3 3 4 5 4 5 8 10 11 13 14 14 13 13 13 11 10 11 11 11 10 8 8 8 8 7 7 8 7 7 8 10 13 12 14 14 17 15 13 14 9 11 14 12 13 12 12 13 19 16 19 20 14 14 15 19 26 24 26 25 21 16 15 13 12 13 12 10 9 8 7 7 7 6 6 6 7 7 7 7 8 8 7 8
3 3 3 4 5 4 4 6 8 11 12 12 14 13 13 13 12 10 9 11 11 10 9 8 7 7 8 7 8 8 7 9 9 12 16 17 18 20 19 16 12 17 13 11 11 12 14 21 20 19 19 18 21 18 17 22 25 24 26 25 22 14 14 12 12 12 11 12 10 9 8 7 6 7 7 7 7 7 7 6 7 7 6 7 7
4 4 3 4 4 5 5 6 7 9 11 11 11 12 11 10 11 11 9 8 10 10 9 8 7 7 7 7 8 8 8 9 9 10 12 14 16 20 21 20 17 16 19 18 21 25 22 21 26 21 19 17 15 14 12 14 22 23 23 19 13 13 11 11 13 14 11 10 10 10 8 7 7 7 7 6 7 7 7 7 7 5 5 6 7
2 3 3 4 4 4 6 5 6 8 10 9 9 11 11 10 10 11 11 9 8 9 9 8 7 7 7 7 8 9 9 9 9 9 9 12 12 15 17 17 20 21 18 18 18 17 18 15 14 18 15 17 16 18 19 19 17 14 11 10 11 11 11 11 13 14 12 11 9 9 8 8 7 7 7 7 7 6 6 7 7 5 5 5 6
1 3 4 4 4 3 5 6 7 6 8 9 9 11 12 11 10 10 11 12 10 8 9 9 9 7 6 6 7 9 10 8 7 9 10 11 12 11 12 12 11 12 16 14 14 14 16 18 18 15 16 14 13 11 10 9 10 11 11 10 10 10 13 16 14 12 10 9 9 9 8 7 7 7 7 7 7 6 6 7 6 4 3 3 4
1 2 3 5 6 3 3 5 5 5 6 8 7 7 10 12 11 10 12 10 10 10 8 8 8 8 8 7 6 9 9 9 5 4 9 10 15 15 13 13 12 12 18 23 17 13 12 13 14 12 12 13 12 11 11 11 9 10 12 11 11 11 11 11 12 10 10 11 12 11 10 7 7 6 7 7 6 6 5 7 6 7 5 5 5
0 2 3 4 5 6 4 4 5 4 5 6 8 7 9 13 14 12 12 16 22 20 16 11 10 8 10 11 8 7 10 8 12 17 17 16 15 17 18 19 21 22 20 22 18 14 12 12 11 12 11 11 11 11 11 11 11 11 10 11 11 11 10 10 11 10 10 11 11 11 10 9 8 7 7 7 6 6 6 6 5 4 6 5 5
0 2 3 3 5 6 5 4 4 4 4 5 6 7 7 7 13 18 19 21 22 22 20 22 23 19 13 10 13 20 20 20 20 19 21 19 19 22 24 24 23 25 27 21 14 12 12 12 10 9 9 10 8 10 11 11 11 12 11 10 9 11 11 10 10 10 10 10 9 9 9 10 10 9 9 8 8 6 6 5 6 5 5 5 5
3 3 2 3 4 4 5 4 4 4 4 4 5 6 7 7 8 12 15 16 19 21 23 25 24 22 21 16 12 12 19 21 22 21 21 20 20 22 23 23 21 21 19 22 18 11 8 11 11 10 9 9 9 6 9 10 10 11 11 11 10 9 11 10 9 10 10 10 10 9 9 9 9 8 8 8 8 8 7 5 6 6 4 4 4
2 2 2 3 3 4 5 5 5 4 4 5 5 5 6 7 9 9 9 11 15 19 24 24 22 20 20 21 22 20 18 19 21 20 19 18 21 23 24 23 21 20 23 16 13 12 9 8 11 10 9 9 8 7 8 9 10 10 9 11 11 9 9 8 10 9 8 8 8 8 8 8 7 7 7 8 8 8 6 6 5 4 5 5 3
1 1 2 2 3 4 5 5 5 5 4 4 4 4 5 6 7 7 8 9 11 13 17 20 20 17 19 21 21 20 20 20 20 19 18 18 20 21 21 19 22 22 19 14 11 10 9 9 8 9 9 7 7 7 8 8 8 9 9 9 9 9 10 9 9 9 7 8 8 9 9 8 7 9 8 7 6 6 6 5 6 5 4 4 4
1 2 2 1 2 3 3 3 4 4 4 4 4 4 5 5 6 7 8 8 9 9 8 10 15 18 14 12 17 18 19 21 19 18 18 18 19 20 20 16 15 13 12 10 9 7 8 8 9 8 8 7 7 7 8 8 8 9 9 10 10 10 9 9 9 9 8 8 9 8 8 9 9 8 8 8 7 7 6 5 5 5 5 4 4
0 0 1 1 1 2 3 3 3 4 4 4 4 5 4 4 5 5 6 7 8 8 8 8 8 10 17 18 18 18 18 18 16 21 21 22 21 18 14 12 12 11 10 8 8 7 8 9 9 8 7 6 6 7 7 8 8 8 8 10 10 10 9 9 9 8 8 8 8 9 8 8 8 8 7 7 7 7 6 6 5 4 5 4 3
2 0 0 1 2 2 2 3 3 3 3 3 3 5 5 5 4 5 5 6 6 6 7 6 7 9 10 10 13 15 17 16 20 21 22 22 21 14 10 9 10 10 9 8 8 8 9 8 8 7 7 7 6 7 7 8 8 8 7 8 9 9 8 8 9 9 9 9 8 8 8 8 8 8 8 8 6 6 6 6 6 5 4 5 5
2 1 0 1 2 2 2 3 3 4 4 4 4 4 5 5 5 5 5 5 5 5 6 6 6 6 7 7 10 8 9 12 16 17 17 15 12 9 9 9 9 8 7 6 7 8 8 8 8 8 7 7 7 7 8 7 7 8 8 8 8 8 9 10 10 9 9 7 7 8 7 7 7 7 7 8 8 7 6 6 6 5 4 4 3
4 3 4 2 2 1 1 1 2 4 4 4 4 5 5 4 5 5 5 5 5 5 4 5 5 5 5 4 5 6 9 9 9 8 8 7 7 6 7 7 7 7 6 6 6 7 7 7 7 7 7 7 7 7 7 7 6 7 7 7 8 8 9 8 8 8 8 8 8 7 7 7 6 6 7 7 7 7 7 7 6 7 6 4 4
5 4 4 4 2 1 0 1 2 3 3 4 4 4 4 5 4 4 4 5 5 5 5 5 4 3 3 3 4 4 6 6 6 5 5 6 5 5 5 6 6 6 6 5 5 6 6 6 7 7 7 7 7 7 7 7 7 6 6 7 8 8 8 8 8 8 8 7 8 7 8 7 7 6 6 6 7 6 7 6 6 5 5 5 4
4 5 4 3 4 3 1 0 0 2 3 4 3 4 5 4 4 4 4 4 5 5 5 4 4 3 3 4 7 6 5 5 4 4 4 4 4 5 5 5 5 5 5 5 5 5 6 6 6 7 7 7 7 7 7 7 7 7 7 7 7 7 6 6 7 7 7 7 7 7 7 7 7 7 6 5 5 6 5 5 5 4 4 5 5
4 4 4 4 3 3 3 2 1 1 3 3 4 4 4 5 5 4 5 4 4 4 4 4 4 3 5 9 8 8 6 4 4 4 4 4 4 4 4 4 3 4 5 5 5 5 5 6 6 6 7 7 7 7 7 7 7 7 7 7 7 6 6 7 6 7 7 7 7 7 7 7 6 5 6 5 6 6 6 5 5 5 4 4 3
5 4 4 4 4 4 4 4 3 2 1 2 3 4 4 5 5 5 5 5 4 3 3 3 2 2 4 5 7 7 5 4 4 4 4 3 4 4 4 4 4 3 3 3 3 5 5 5 5 5 6 7 7 8 8 8 7 7 7 7 7 7 7 6 6 6 6 7 7 7 7 6 6 6 6 6 6 6 5 6 5 4 4 4 3
5 4 4 4 4 3 3 4 4 3 2 3 3 3 3 4 5 4 5 5 5 4 4 2 1 2 2 3 4 5 5 4 3 4 4 3 3 3 4 4 4 4 4 4 3 3 5 6 5 4 4 5 6 6 6 7 8 8 7 7 7 7 7 7 7 7 7 7 7 7 7 6 6 6 6 6 6 6 5 5 5 5 5 4 4
3 5 4 4 3 4 3 3 3 4 3 3 3 2 2 3 5 5 5 5 4 4 4 4 3 2 2 2 3 4 3 3 3 3 3 3 4 4 3 4 4 4 4 4 3 4 4 5 6 6 5 4 5 5 6 6 7 8 8 8 8 8 7 8 7 7 7 8 8 7 7 6 6 6 6 6 6 6 5 5 5 4 5 4 4
4 4 4 4 3 3 3 3 3 4 4 4 5 4 3 2 3 4 5 4 4 4 4 4 5 4 3 3 2 2 3 3 3 3 3 3 3 3 3 3 3 4 4 4 4 4 5 5 5 6 6 6 5 5 5 5 5 6 7 7 8 8 8 7 7 7 8 8 8 8 8 7 7 6 7 6 5 5 5 4 4 4 5 4 3
1 2 2 2 3 2 3 3 4 3 3 3 3 4 4 4 3 2 3 5 5 3 4 4 4 4 5 5 5 4 3 4 4 4 3 3 3 4 3 2 3 3 3 4 3 4 5 5 5 5 5 5 5 6 5 5 5 5 5 6 6 7 6 7 8 8 8 8 8 7 8 7 7 5 6 6 5 5 5 6 5 6 4 4 4
0 1 2 2 2 2 2 3 3 3 3 3 3 3 3 3 3 3 3 3 4 4 4 3 3 3 3 3 3 4 4 4 4 3 3 3 3 3 3 3 4 3 2 2 2 2 3 4 5 5 5 5 5 5 5 5 5 5 4 4 4 6 8 9 7 7 7 7 7 8 8 8 7 7 7 7 6 6 6 4 3 3 4 4 2
6 5 3 2 2 2 2 3 3 4 5 4 4 4 3 3 3 3 3 3 4 4 4 4 4 4 3 3 3 3 3 2 3 4 4 4 4 4 4 3 3 4 4 3 2 2 2 2 3 4 5 5 6 6 5 5 6 5 5 4 6 9 12 12 9 8 9 8 6 6 6 7 8 7 7 6 6 6 5 5 4 5 3 3 4
6 6 6 5 4 2 1 2 3 3 3 4 4 4 5 4 4 4 4 3 3 3 4 4 4 5 5 4 3 4 4 4 4 4 3 3 3 3 4 4 3 3 4 4 4 3 2 2 2 3 3 4 4 5 5 6 6 6 6 6 9 11 12 12 11 12 10 6 8 7 8 7 7 7 7 7 7 7 6 5 5 4 4 5 3
7 7 7 7 7 5 3 1 1 2 2 3 3 4 5 5 5 5 5 5 4 4 4 4 4 4 4 5 4 4 5 5 4 4 4 4 4 4 4 4 5 4 3 3 3 4 4 4 4 4 4 4 4 5 5 5 5 6 8 10 12 12 12 11 9 11 12 9 7 8 8 8 8 7 7 7 7 6 7 7 6 5 4 4 4
Wind_Direction
266 265 269 269 271 279 288 290 286 285 287 284 285 284 284 285 280 276 280 275 272 272 272 272 273 269 260 253 258 259 249 245 247 247 244 241 234 233 227 218 212 211 209 206 203 197 193 197 202 208 197 195 196 196 199 198 195 196 194 192 192 191 183 181 165 127 59 79 129 141 148 143 139 142 128 121 122 113 106 101 119 115 115 107 103
254 261 261 262 269 281 287 289 289 289 288 288 286 286 284 285 284 283 276 276 272 271 270 267 266 267 270 269 257 247 247 243 240 242 243 241 237 232 231 222 216 211 207 210 203 196 187 194 203 209 204 200 199 200 200 202 198 200 201 196 197 188 181 173 161 153 142 141 116 131 144 155 129 158 142 137 133 128 120 119 108 113 117 115 110
266 261 265 269 272 275 282 287 292 291 289 288 289 290 288 285 286 283 280 278 274 270 268 265 263 263 261 262 268 264 248 239 234 237 240 239 236 233 229 226 218 212 206 207 205 197 193 193 199 205 203 204 203 203 202 203 198 201 191 182 195 187 172 172 145 150 150 140 143 145 153 157 148 153 144 125 125 129 122 120 116 101 87 104 106
264 268 267 267 271 278 281 286 289 291 289 288 284 286 284 283 285 282 279 277 276 272 267 263 261 259 260 254 254 259 258 248 234 229 236 237 235 233 229 226 221 216 210 204 200 198 201 198 201 201 198 202 204 204 203 201 201 198 184 188 194 188 174 164 168 148 151 139 171 156 152 139 118 108 102 111 116 108 102 104 100 96 95 94 102
266 269 268 272 279 281 282 286 288 287 286 286 285 287 288 288 285 284 283 278 276 274 268 262 258 254 252 253 252 249 249 251 243 233 230 233 234 232 229 225 222 218 213 207 200 196 196 201 201 201 197 200 204 203 197 198 199 190 183 184 186 166 152 163 159 143 142 148 145 142 133 100 107 120 135 123 108 96 95 98 104 106 92 85 88
261 269 271 275 282 282 283 285 286 285 284 286 285 285 283 281 282 278 278 278 276 272 269 262 255 254 251 249 248 248 245 242 243 236 230 227 231 232 229 225 221 218 216 209 200 196 195 198 198 199 198 202 203 200 194 195 190 184 179 180 178 183 180 161 144 151 148 149 147 142 152 139 132 140 152 135 131 124 112 109 92 80 112 100 81
270 270 275 276 280 281 285 286 287 286 285 284 282 284 285 282 279 278 277 273 272 269 264 260 255 253 252 249 246 244 244 240 237 231 224 223 225 229 229 225 221 218 214 212 206 198 197 197 195 195 199 203 203 197 189 191 190 190 179 180 171 171 163 163 160 150 146 140 143 149 146 144 145 141 155 132 121 139 140 137 109 88 50 106 111
270 272 274 275 276 282 286 288 287 284 282 283 282 280 278 276 272 273 273 267 267 264 262 259 257 251 249 247 246 243 241 239 234 229 221 218 220 224 226 223 220 219 214 210 205 198 197 194 196 198 197 200 204 193 183 186 184 186 179 173 173 170 163 157 150 150 152 151 150 149 152 142 108 80 116 138 127 133 191 143 144 149 130 81 73
271 273 273 275 280 286 288 288 284 282 285 287 282 278 276 273 271 269 267 269 267 266 261 260 259 252 245 243 242 240 240 237 230 223 217 214 217 219 222 221 217 214 213 210 205 200 198 196 193 194 195 199 198 189 187 178 174 178 174 166 162 162 163 156 153 141 118 117 124 134 142 148 154 147 157 171 178 171 151 136 113 123 127 113 90
268 273 274 278 283 285 287 287 285 285 287 285 282 280 279 278 275 271 266 263 264 263 263 260 257 253 245 239 236 234 234 235 229 218 210 210 213 217 217 219 214 211 206 205 201 193 191 187 193 191 192 196 197 190 184 178 179 173 163 159 157 156 155 151 148 148 149 158 158 157 157 170 169 175 170 166 109 101 130 136 130 143 113 97 96
267 271 278 283 286 288 289 288 285 286 289 286 284 284 284 283 279 275 270 264 259 258 258 258 255 251 245 240 235 230 230 229 223 212 207 205 209 214 215 213 212 206 199 194 191 186 183 186 184 189 193 195 194 189 184 184 179 166 163 165 165 158 153 153 156 162 166 161 159 164 168 165 172 165 161 137 147 152 150 146 132 144 154 150 150
270 278 282 290 292 294 292 289 289 292 292 289 288 288 287 285 282 277 274 268 262 256 253 254 254 250 245 239 233 229 229 229 220 209 204 204 207 212 214 214 210 196 187 184 177 175 170 157 145 138 161 179 166 168 162 153 148 154 163 166 168 168 167 165 164 157 148 141 148 171 156 170 164 164 152 152 150 133 130 137 146 156 153 147 127
280 288 293 293 296 294 293 296 296 295 292 290 289 287 285 283 282 280 275 272 267 261 259 255 252 250 242 236 232 229 230 224 213 205 202 201 206 209 213 212 195 184 175 170 164 165 159 148 138 130 134 142 151 152 146 134 130 133 136 140 148 155 152 118 153 160 159 149 159 173 181 164 161 179 166 151 139 128 132 127 139 134 120 113 119
295 296 297 298 301 301 301 300 297 295 293 291 289 286 285 285 283 280 279 275 267 263 260 257 252 247 240 233 228 225 223 219 205 201 201 200 202 203 210 194 186 178 175 168 166 166 162 153 147 147 146 145 146 147 142 134 130 120 115 111 109 95 101 127 140 142 155 165 168 170 168 170 169 153 145 144 145 151 147 135 138 129 122 116 119
303 298 302 303 302 301 304 304 300 298 295 292 290 288 288 287 286 285 280 276 274 269 267 265 256 249 240 227 223 223 222 213 202 200 200 199 200 199 206 188 180 187 180 172 171 174 167 162 159 157 154 152 153 149 145 143 132 123 114 102 79 57 83 92 112 124 115 96 99 109 122 115 116 124 124 113 119 124 141 140 134 121 113 114 92
300 302 305 302 301 305 310 308 304 302 299 296 294 293 292 290 290 290 283 277 270 266 266 260 259 251 240 230 223 223 218 200 194 198 198 197 193 197 198 179 175 177 189 177 172 167 166 161 162 162 162 154 157 153 142 128 117 110 108 101 86 73 60 58 76 85 97 103 109 117 113 110 118 122 122 115 106 107 94 93 98 114 122 114 107
304 304 303 298 302 314 317 314 312 308 304 302 301 301 301 299 293 286 281 278 274 269 265 263 260 254 241 230 219 215 202 191 187 193 195 190 184 195 184 174 163 166 174 178 165 164 163 164 162 162 158 157 159 150 147 136 131 130 122 107 100 91 81 67 78 85 89 92 96 98 102 105 107 109 113 117 122 124 117 109 134 145 130 126 111
296 303 298 296 306 321 323 320 315 311 309 307 307 307 305 297 291 286 283 284 277 269 262 264 264 256 236 217 209 193 184 180 181 188 191 185 184 180 169 163 157 151 142 149 141 130 148 151 144 150 156 155 153 150 148 138 133 132 126 120 112 104 103 104 95 87 89 91 95 98 101 104 104 104 108 113 123 133 136 145 161 141 121 125 128
293 296 297 296 306 327 326 323 319 313 312 310 310 309 300 298 298 292 284 276 271 267 258 253 258 249 231 211 192 177 172 181 177 179 190 185 175 156 157 154 148 147 139 127 112 113 123 140 145 150 152 153 153 155 156 153 145 144 137 124 118 113 128 132 116 113 111 106 100 98 89 90 88 90 91 91 84 61 71 117 144 138 132 129 118
272 280 287 297 308 329 330 326 322 317 315 313 312 307 305 302 298 298 295 284 271 258 247 239 196 50 33 143 148 159 155 160 170 165 186 186 160 155 155 154 153 150 147 138 131 112 120 126 143 149 156 160 161 157 157 152 143 143 136 131 128 125 144 124 120 118 114 107 105 94 92 88 86 85 81 78 75 77 90 104 111 116 121 126 129
273 277 289 297 323 337 334 329 326 322 318 314 308 309 312 311 309 314 312 314 304 233 127 115 91 65 56 47 60 55 120 134 141 152 161 177 161 153 164 163 156 152 149 147 143 138 134 135 137 144 148 153 153 151 155 152 143 146 145 144 139 139 135 119 118 112 108 106 100 98 96 89 87 85 85 84 86 89 89 77 90 99 116 127 120
272 293 301 308 320 340 334 330 331 325 321 319 324 323 322 324 326 331 338 351 353 359 58 69 74 70 57 50 50 60 83 103 124 134 147 150 154 154 157 157 154 144 143 141 137 139 143 143 143 144 137 129 140 133 132 127 119 102 102 114 124 130 124 119 120 113 107 106 106 104 105 100 99 99 96 95 94 97 94 82 69 64 54 86 120
290 301 304 312 320 341 333 331 336 333 328 328 332 336 335 333 338 342 351 358 5 3 18 46 65 67 62 56 50 55 71 81 105 113 122 132 134 116 126 139 147 145 146 148 144 131 124 125 123 133 136 128 127 132 127 115 106 116 120 122 120 117 116 115 115 112 109 110 111 110 109 111 112 112 110 109 109 94 84 80 78 84 80 79 75
307 329 315 314 312 334 323 328 336 340 336 336 341 348 347 342 341 351 4 9 8 7 8 22 50 60 63 61 54 53 59 80 88 98 103 108 109 106 105 120 142 143 139 131 129 126 126 128 132 126 120 120 120 120 116 118 123 123 120 119 119 117 117 118 117 116 118 117 113 114 114 114 111 116 123 125 106 91 87 85 83 81 86 83 85
327 337 319 312 311 313 313 320 336 343 343 341 346 349 351 352 353 348 0 21 12 8 9 15 34 49 61 62 66 61 63 74 80 91 99 103 104 106 110 116 123 124 111 104 110 110 111 112 105 112 112 104 103 102 108 118 120 120 120 120 118 119 120 120 121 122 117 121 119 113 116 119 118 118 114 105 107 102 93 83 79 82 92 93 89
324 320 313 299 306 317 316 324 329 343 343 338 342 348 348 354 1 354 350 17 29 12 10 13 24 42 58 69 73 74 71 78 82 89 95 93 97 100 102 103 96 91 99 99 101 105 109 110 106 100 101 107 107 113 118 120 117 116 117 116 115 119 123 122 125 122 119 121 123 124 120 122 117 117 116 120 113 108 108 102 103 97 99 100 88
303 318 318 302 315 330 322 330 327 341 344 341 346 353 0 2 4 6 3 359 23 32 12 14 19 34 52 63 77 78 76 78 88 96 103 103 104 103 101 101 107 106 102 102 102 104 103 105 106 104 95 95 101 111 116 117 110 107 103 104 108 111 117 123 126 123 124 120 115 115 116 114 119 119 121 113 101 92 98 104 100 100 98 93 93
280 304 307 310 319 331 328 330 336 337 342 340 351 2 7 6 6 10 4 7 5 29 32 19 18 25 39 48 72 80 76 70 79 106 112 114 113 110 113 117 119 123 106 102 104 104 106 102 98 101 105 104 108 107 101 92 101 105 104 102 101 99 97 96 95 103 107 108 107 112 115 124 122 122 114 102 98 99 100 97 103 94 83 108 88
311 327 321 328 319 330 336 330 336 335 339 342 351 4 8 7 8 16 19 13 16 23 40 39 27 23 22 28 54 81 76 67 39 70 97 117 127 127 125 123 120 102 114 116 105 98 96 101 107 105 110 117 118 115 112 106 99 101 104 105 106 110 114 122 119 118 125 126 128 130 128 122 118 115 109 99 93 98 94 90 82 99 84 75 92
66 313 323 321 323 327 354 347 338 345 343 342 344 355 16 25 24 27 17 19 27 32 41 48 40 34 46 37 28 66 81 84 82 87 92 95 99 106 112 115 118 114 109 104 110 111 108 106 108 113 118 120 122 121 120 120 118 109 104 105 110 113 115 116 120 124 125 125 129 129 131 128 121 114 106 106 99 87 78 103 103 103 100 101 102
197 302 329 323 323 322 332 357 342 346 353 351 345 353 358 15 28 28 32 32 32 32 36 43 47 43 45 60 55 62 75 77 78 85 91 93 101 106 107 107 106 111 116 108 82 95 112 111 109 104 109 109 107 120 124 120 119 115 115 113 110 114 116 117 122 123 123 124 124 124 125 124 122 122 118 114 112 104 87 71 99 90 101 110 105
224 254 284 307 328 331 333 353 359 359 359 3 359 356 1 5 13 29 27 30 33 32 38 44 45 48 48 51 60 63 58 66 74 79 86 94 98 95 93 95 96 95 90 98 103 97 96 107 108 110 108 104 112 114 114 117 118 119 122 118 117 118 121 123 129 126 128 127 129 127 123 119 117 115 112 109 113 105 104 108 103 102 93 89 89
202 254 291 316 334 344 353 0 3 11 11 14 14 10 13 9 17 12 17 28 37 37 36 41 46 43 43 49 54 61 66 65 67 71 78 84 87 88 85 81 82 87 91 83 91 104 106 107 118 110 109 116 115 118 113 112 116 119 121 122 123 122 115 117 121 120 127 130 127 121 120 115 111 108 109 111 111 113 118 112 99 93 106 102 92
171 199 256 302 336 356 6 2 7 9 8 25 38 34 25 18 14 13 18 16 25 32 35 36 39 43 42 46 53 58 59 63 62 63 64 68 74 78 83 80 72 65 71 88 91 99 104 110 98 103 105 96 103 111 109 110 111 112 112 110 114 116 118 124 120 123 125 125 120 120 118 116 118 120 117 106 105 114 116 116 121 119 111 112 111
106 110 124 52 16 4 4 13 17 13 14 29 32 51 45 33 29 25 22 23 27 31 21 27 35 40 45 44 43 46 53 52 51 53 53 56 63 70 72 75 76 73 69 74 84 96 107 102 105 97 95 109 116 115 111 112 114 116 120 121 121 122 124 124 124 127 125 120 117 118 123 125 123 118 123 126 125 120 124 130 130 127 124 123 117
109 93 109 98 52 30 29 37 39 38 28 27 39 57 59 58 54 37 26 27 31 33 35 34 32 28 41 47 45 45 44 42 39 44 46 49 50 56 71 74 77 76 79 79 94 100 99 98 96 97 103 104 103 107 112 112 112 114 122 127 129 129 127 125 127 127 125 123 124 122 118 113 117 118 113 113 126 131 135 136 131 121 127 130 134
129 91 71 99 111 75 48 58 55 55 50 32 43 58 58 60 63 62 53 40 32 29 31 27 30 34 29 37 44 48 46 46 45 44 44 47 51 54 62 68 80 84 89 96 102 106 101 102 104 108 111 113 110 107 106 106 110 113 117 119 122 122 126 131 129 129 126 124 119 124 125 118 121 126 128 125 124 126 129 128 124 124 125 134 129
137 162 203 114 100 82 65 57 58 60 57 58 46 57 61 56 56 62 71 62 50 39 38 31 35 38 32 28 26 36 40 42 44 44 40 43 46 56 61 64 68 78 85 92 97 104 104 104 112 115 119 118 118 116 111 113 117 123 123 120 116 118 114 116 118 121 122 123 126 124 122 123 127 124 125 131 137 137 136 132 129 128 124 136 136
126 148 145 102 87 98 105 80 52 68 57 59 63 66 59 59 56 57 58 70 68 59 54 53 48 50 50 39 45 20 36 41 46 50 50 52 56 61 75 78 85 85 87 90 95 100 111 115 116 113 112 113 115 115 116 118 120 121 124 122 120 122 122 128 128 129 127 126 121 122 124 127 127 127 125 123 132 137 135 134 134 137 143 151 162
136 144 147 133 105 103 106 109 107 77 70 76 67 77 78 68 62 59 60 72 70 72 76 67 59 44 50 73 63 58 73 66 69 62 58 53 60 60 71 86 91 95 95 96 104 117 115 121 125 126 127 126 126 123 123 125 127 128 126 126 128 128 133 134 136 134 134 133 130 125 126 128 131 124 120 130 136 136 138 145 147 147 142 138 135
133 135 140 163 162 137 100 60 79 107 100 96 101 87 92 94 87 76 62 63 75 79 73 78 77 55 55 77 82 83 98 93 81 76 68 78 74 73 75 86 105 111 113 115 117 122 127 126 127 126 126 127 127 128 130 128 130 131 130 128 127 128 129 130 132 130 130 133 132 127 125 124 130 132 135 139 132 130 129 128 129 130 128 127 137
130 138 142 165 160 147 150 220 245 116 120 111 95 104 108 103 102 103 91 75 61 69 87 78 69 73 74 77 93 101 95 95 98 86 71 62 68 68 73 72 75 109 138 146 145 134 133 128 129 132 133 135 134 133 132 133 135 135 135 135 131 130 127 129 136 135 137 131 133 130 126 136 140 139 131 134 131 127 124 126 130 129 131 137 139
161 166 172 169 162 167 175 185 164 131 115 112 117 115 112 109 111 112 107 106 95 74 76 91 90 65 66 78 92 94 94 103 108 104 96 93 85 88 83 81 83 85 96 107 140 145 138 134 134 139 142 146 147 149 147 148 144 140 140 138 138 139 142 138 137 139 137 136 134 142 143 140 136 132 131 130 129 126 131 129 132 135 137 139 146
153 165 178 184 171 160 150 145 160 166 163 142 134 128 126 119 113 108 116 115 114 118 112 103 108 95 94 67 75 88 104 113 114 122 120 114 108 98 103 101 100 84 80 81 81 97 127 129 131 129 129 140 145 146 144 144 146 145 146 144 145 147 146 150 149 147 146 139 135 138 140 140 139 132 128 130 130 131 127 128 129 132 136 138 136
168 166 169 191 185 168 181 169 152 148 138 127 122 127 134 135 127 125 118 120 130 127 130 138 134 128 124 119 105 106 112 119 135 135 137 132 130 132 128 118 109 105 95 85 82 93 102 117 127 132 132 127 133 139 141 147 149 151 151 150 151 156 161 163 166 158 149 145 142 142 143 145 147 143 138 140 144 136 138 146 141 127 123 141 154
188 174 181 197 205 186 167 161 159 153 157 157 151 158 164 145 146 141 135 137 139 141 146 145 146 148 157 167 161 141 138 135 144 147 144 139 136 137 137 128 122 117 120 121 105 101 109 121 130 136 141 141 139 130 130 140 147 148 154 157 159 166 168 163 148 146 153 154 152 150 147 146 151 153 151 145 141 139 132 132 138 147 147 155 162
331 312 275 236 242 203 170 168 159 170 165 168 158 154 164 180 166 150 149 149 148 152 157 161 157 166 163 169 180 183 178 169 171 167 166 165 158 150 143 127 117 119 120 126 128 123 124 123 122 127 133 137 136 139 136 132 133 146 158 161 159 149 146 146 153 158 162 162 154 146 150 153 149 142 142 132 126 132 130 146 151 152 150 148 150
335 246 266 279 278 247 189 162 173 177 179 178 161 154 164 167 160 166 171 164 158 158 158 167 184 178 176 188 183 184 184 184 172 170 165 171 174 167 154 152 146 140 122 109 114 125 128 130 127 126 128 137 143 145 144 143 138 142 138 142 148 152 150 151 153 158 159 155 156 155 154 152 138 140 139 143 145 137 138 143 137 127 137 140 136
26 19 353 307 256 244 217 195 184 188 198 183 151 152 160 164 182 191 192 189 189 182 176 176 182 185 193 198 190 187 190 184 189 182 177 175 171 171 169 162 152 149 150 156 160 157 156 137 139 139 142 142 148 152 151 155 157 157 157 151 147 149 154 157 156 159 156 150 143 141 145 144 146 148 145 146 140 136 126 126 135 132 136 133 132
24 22 24 16 3 331 231 182 186 198 190 169 166 167 165 164 170 188 200 204 213 212 206 194 185 183 181 183 188 195 188 200 203 199 183 180 176 167 164 164 163 168 172 175 175 171 168 170 161 156 150 148 147 153 158 163 170 172 174 168 159 157 164 165 158 150 151 144 148 146 145 143 138 138 136 135 131 133 134 138 139 141 140 138 144
23 21 21 18 12 5 12 23 218 207 201 185 171 179 178 181 182 183 186 193 204 215 214 211 208 195 191 188 184 183 199 203 196 185 185 179 179 177 174 173 175 178 177 172 171 174 173 173 176 178 174 167 161 157 162 168 169 177 177 167 165 166 164 161 156 164 159 149 139 134 135 140 139 136 125 125 125 134 146 142 142 146 149 146 141